EW9214 Weather Reports


time (UTC)temp
C
wind
direction
speed
KPH
gust
KPH
rain 1hr
cm
rain 24hr
cm
rain mn
cm
humidity
%
barometer
mb
20260505100028 3 49 20.9 25.7 0.00 0.00 0.00 83 1001.9
20260505094527 4 49 16.1 25.7 0.00 0.00 0.00 83 1001.8
20260505093019 5 63 25.7 33.8 0.00 0.00 0.00 81 1001.4
20260505091516 5 54 24.1 30.6 0.00 0.00 0.00 79 1001.4
20260505090013 6 60 24.1 29.0 0.00 0.00 0.00 77 1001.5
20260505084509 6 63 22.5 29.0 0.00 0.00 0.00 74 1001.6
20260505083008 6 52 25.7 33.8 0.00 0.00 0.00 73 1001.1
20260505081507 6 42 17.7 33.8 0.00 0.00 0.00 74 1001.6
20260505080005 7 55 25.7 33.8 0.00 0.00 0.00 72 1001.4
20260505074559 7 21 25.7 32.2 0.00 0.00 0.00 68 1001.9
20260505073100 8 25 19.3 30.6 0.00 0.00 0.00 63 1002.3
20260505071551 8 24 20.9 29.0 0.00 0.00 0.00 59 1001.9
20260505070054 9 48 22.5 29.0 0.00 0.00 0.00 56 1001.7
20260505064546 9 26 17.7 22.5 0.00 0.00 0.00 56 1001.3
20260505063106 10 28 12.9 24.1 0.00 0.00 0.00 54 1001.5
20260505061543 10 71 12.9 22.5 0.00 0.00 0.00 52 1001.8
20260505060038 10 86 16.1 25.7 0.00 0.00 0.00 51 1001.3
20260505054539 10 86 22.5 30.6 0.00 0.00 0.00 50 1001.0
20260505053034 10 84 24.1 30.6 0.00 0.00 0.00 49 1001.0
20260505051532 11 65 24.1 29.0 0.00 0.00 0.00 48 1001.0
20260505041532 11 21 20.9 37.0 0.00 0.00 0.00 46 1000.2
20260505040032 11 37 30.6 48.3 0.00 0.00 0.00 45 999.7
20260505034522 12 48 37.0 51.5 0.00 0.00 0.00 44 999.6
20260505033013 12 26 27.4 45.1 0.00 0.00 0.00 43 999.5
20260505031520 12 36 30.6 45.1 0.00 0.00 0.00 42 999.1
20260505030005 13 38 30.6 45.1 0.00 0.00 0.00 41 998.7
20260505024502 13 48 35.4 48.3 0.00 0.00 0.00 40 998.3
20260505023058 14 52 27.4 38.6 0.00 0.00 0.00 40 997.9
20260505021559 14 350 17.7 29.0 0.00 0.00 0.00 41 997.6
20260505020052 14 335 17.7 25.7 0.00 0.00 0.00 40 997.4
20260505014605 15 313 19.3 27.4 0.00 0.00 0.00 39 997.5
20260505013049 15 325 12.9 25.7 0.00 0.00 0.00 37 997.4
20260505011552 17 328 16.1 22.5 0.00 0.00 0.00 31 997.6
20260505010040 17 44 8.0 38.6 0.00 0.00 0.00 28 997.3
20260505004540 17 333 22.5 40.2 0.00 0.00 0.00 27 997.1
20260505003035 18 284 14.5 27.4 0.00 0.00 0.00 27 997.1
20260505001534 18 360 12.9 24.1 0.00 0.00 0.00 25 997.0
20260505000045 18 237 12.9 24.1 0.00 0.00 0.00 26 996.9
20260504234534 18 289 4.8 30.6 0.00 0.00 0.00 23 996.9
20260504233036 18 291 33.8 46.7 0.00 0.00 0.00 25 996.5
20260504231526 20 350 14.5 22.5 0.00 0.00 0.00 21 996.2
20260504230025 20 11 16.1 25.7 0.00 0.00 0.00 21 995.9
20260504224523 20 17 16.1 30.6 0.00 0.00 0.00 20 995.8
20260504223033 20 37 19.3 24.1 0.00 0.00 0.00 20 995.9
20260504221520 21 60 22.5 38.6 0.00 0.00 0.00 20 995.7
20260504220018 21 59 19.3 35.4 0.00 0.00 0.00 19 995.7
20260504214516 21 350 20.9 30.6 0.00 0.00 0.00 18 995.8
20260504213029 22 32 20.9 32.2 0.00 0.00 0.00 17 996.0
20260504211513 22 351 20.9 38.6 0.00 0.00 0.00 18 996.1
20260504210012 22 16 6.4 30.6 0.00 0.00 0.00 16 996.5
20260504204524 22 44 14.5 19.3 0.00 0.00 0.00 16 996.5
20260504203005 21 23 11.3 24.1 0.00 0.00 0.00 17 996.8
20260504201504 21 26 22.5 40.2 0.00 0.00 0.00 17 997.0
20260504200003 21 326 4.8 22.5 0.00 0.00 0.00 16 997.1
20260504194502 21 340 20.9 29.0 0.00 0.00 0.00 17 997.0
20260504193101 21 317 11.3 20.9 0.00 0.00 0.00 16 997.2
20260504191603 21 167 3.2 9.7 0.00 0.00 0.00 16 996.9
20260504190105 21 167 8.0 14.5 0.00 0.00 0.00 15 996.9
20260504184600 21 112 19.3 27.4 0.00 0.00 0.00 15 996.9
20260504183057 21 142 14.5 22.5 0.00 0.00 0.00 17 997.0
20260504181600 20 22 14.5 32.2 0.00 0.00 0.00 16 997.2
20260504180056 21 296 19.3 25.7 0.00 0.00 0.00 14 997.1
20260504174550 -17 261 6.4 22.5 0.00 0.00 0.00 997.1